This is the latest recevied weather packets stored in our database for station/object SV9TNF-2. If no packets are shown the sender has not sent any weather packets the latest 10 day(s).
| Time | Temp. | Humidity | Pressure | Rain* | Wind** | Luminosity | Snow |
|---|---|---|---|---|---|---|---|
| 1777431854 | 11.67° C | 67% | 1022.7 hPa | 0 mm | 4.92 m/s, 188° | - | - |
| 1777431554 | 12.22° C | 66% | 1022.7 hPa | 0 mm | 2.68 m/s, 259° | - | - |
| 1777431254 | 11.67° C | 67% | 1022.7 hPa | 0 mm | 4.47 m/s, 178° | - | - |
| 1777430954 | 11.67° C | 67% | 1022.7 hPa | 0 mm | 4.02 m/s, 170° | - | - |
| 1777430654 | 11.67° C | 67% | 1022.7 hPa | 0 mm | 4.92 m/s, 271° | - | - |
| 1777430354 | 11.67° C | 66% | 1022.7 hPa | 0 mm | 4.92 m/s, 238° | - | - |
| 1777430054 | 11.67° C | 66% | 1022.7 hPa | 0 mm | 3.58 m/s, 253° | - | - |
| 1777429753 | 11.67° C | 66% | 1022.7 hPa | 0 mm | 4.47 m/s, 257° | - | - |
| 1777429453 | 12.22° C | 64% | 1022.7 hPa | 0 mm | 5.81 m/s, 239° | - | - |
| 1777429153 | 12.78° C | 63% | 1022.7 hPa | 0 mm | 4.47 m/s, 213° | - | - |
| 1777428853 | 12.22° C | 63% | 1022.7 hPa | 0 mm | 5.81 m/s, 120° | - | - |
| 1777428553 | 12.78° C | 61% | 1022.7 hPa | 0 mm | 5.81 m/s, 270° | - | - |
| 1777428253 | 12.22° C | 62% | 1022.7 hPa | 0 mm | 6.71 m/s, 241° | - | - |
| 1777427953 | 11.67° C | 64% | 1022.7 hPa | 0 mm | 5.81 m/s, 243° | - | - |
| 1777427652 | 11.67° C | 64% | 1022.7 hPa | 0 mm | 7.15 m/s, 210° | - | - |
| 1777427352 | 11.67° C | 65% | 1022.7 hPa | 0 mm | 5.81 m/s, 273° | - | - |
| 1777427052 | 12.22° C | 61% | 1022.7 hPa | 0 mm | 4.47 m/s, 203° | - | - |
| 1777426752 | 12.22° C | 60% | 1022.7 hPa | 0 mm | 4.47 m/s, 236° | - | - |
| 1777426452 | 12.22° C | 63% | 1022.7 hPa | 0 mm | 4.02 m/s, 177° | - | - |
| 1777426152 | 12.22° C | 61% | 1022.7 hPa | 0 mm | 5.81 m/s, 161° | - | - |
| 1777425852 | 12.22° C | 61% | 1022.7 hPa | 0 mm | 4.02 m/s, 167° | - | - |
| 1777425552 | 12.22° C | 62% | 1022.7 hPa | 0 mm | 2.24 m/s, 248° | - | - |
| 1777425252 | 12.22° C | 62% | 1022.7 hPa | 0 mm | 5.81 m/s, 187° | - | - |
| 1777424952 | 12.78° C | 61% | 1022.7 hPa | 0 mm | 5.81 m/s, 180° | - | - |
| 1777424651 | 12.78° C | 59% | 1022.7 hPa | 0 mm | 4.47 m/s, 171° | - | - |
* Rain latest hour (hover to see other rain measurements)
** Current wind speed in m/s (hover to see current wind gust speed)